Tracking 22458 objects as of 2-Mar-2021
HD Live streaming from Space Station
objects crossing your sky now

STARLINK-1118


STARLINK-1118 is no longer on orbit
STARLINK-1118 is classified as:


NORAD ID: 44948
Int'l Code: 2020-001AL
Perigee: N/A
Apogee: N/A
Inclination: N/A
Period: N/A
Semi major axis: N/A
RCS: N/A
Launch date: January 7, 2020
Source: United States (US)
Launch site: AIR FORCE EASTERN TEST RANGE (AFETR)
Decay date: 2020-04-02
aabbcc
Your satellite tracking list
Your tracking list is empty




NASA's NSSDC Master Catalog

Two Line Element Set (TLE):
1 44948U 20001AL  20093.11544131 +.10026385 +12155-4 +15322-2 0  9994
2 44948 052.9916 320.6390 0006458 255.8970 104.1355 16.33333815013677
Source of the keplerian elements: AFSPC